TimeEST,TemperatureF,Dew PointF,Humidity,Sea Level PressureIn,VisibilityMPH,Wind Direction,Wind SpeedMPH,Gust SpeedMPH,PrecipitationIn,Events,Conditions,WindDirDegrees,DateUTC
12:55 AM,15.8,12.2,86,30.32,10.0,Calm,Calm,-,N/A,,Clear,0,2013-02-02 05:55:00
1:15 AM,17.6,10.4,73,30.31,10.0,Calm,Calm,-,N/A,,Clear,0,2013-02-02 06:15:00
1:35 AM,15.8,10.4,79,30.30,10.0,East,4.6,-,N/A,,Clear,80,2013-02-02 06:35:00
1:55 AM,15.8,10.4,79,30.29,10.0,ENE,4.6,-,N/A,,Clear,70,2013-02-02 06:55:00
2:15 AM,15.8,10.4,79,30.29,10.0,Calm,Calm,-,N/A,,Clear,0,2013-02-02 07:15:00
2:35 AM,15.8,10.4,79,30.28,10.0,Calm,Calm,-,N/A,,Clear,0,2013-02-02 07:35:00
2:55 AM,15.8,10.4,79,30.29,10.0,Variable,3.5,-,N/A,,Clear,0,2013-02-02 07:55:00
3:15 AM,15.8,10.4,79,30.29,10.0,Variable,4.6,-,N/A,,Clear,0,2013-02-02 08:15:00
3:35 AM,15.8,10.4,79,30.29,10.0,Calm,Calm,-,N/A,,Clear,0,2013-02-02 08:35:00
4:15 AM,15.8,10.4,79,30.27,10.0,ENE,3.5,-,N/A,,Clear,70,2013-02-02 09:15:00
4:35 AM,15.8,10.4,79,30.27,10.0,ENE,4.6,-,N/A,,Clear,60,2013-02-02 09:35:00
4:55 AM,15.8,8.6,73,30.25,10.0,ENE,4.6,-,N/A,,Clear,60,2013-02-02 09:55:00
5:15 AM,15.8,10.4,79,30.25,10.0,ENE,6.9,-,N/A,,Clear,70,2013-02-02 10:15:00
5:35 AM,15.8,10.4,79,30.25,10.0,NNE,3.5,-,N/A,,Clear,30,2013-02-02 10:35:00
5:55 AM,15.8,10.4,79,30.27,10.0,Calm,Calm,-,N/A,,Clear,0,2013-02-02 10:55:00
6:15 AM,15.8,10.4,79,30.26,10.0,Calm,Calm,-,N/A,,Clear,0,2013-02-02 11:15:00
6:35 AM,15.8,10.4,79,30.27,10.0,Calm,Calm,-,N/A,,Scattered Clouds,0,2013-02-02 11:35:00
7:15 AM,17.6,10.4,73,30.27,10.0,NE,4.6,-,N/A,,Overcast,40,2013-02-02 12:15:00
7:35 AM,17.6,10.4,73,30.26,10.0,NE,4.6,-,N/A,,Overcast,50,2013-02-02 12:35:00
7:55 AM,19.4,8.6,63,30.26,10.0,Calm,Calm,-,N/A,,Overcast,0,2013-02-02 12:55:00
8:15 AM,19.4,10.4,68,30.26,10.0,NE,3.5,-,N/A,,Overcast,40,2013-02-02 13:15:00
8:35 AM,21.2,10.4,63,30.27,10.0,Calm,Calm,-,N/A,,Overcast,0,2013-02-02 13:35:00
8:55 AM,21.2,10.4,63,30.25,10.0,ENE,3.5,-,N/A,,Overcast,60,2013-02-02 13:55:00
9:15 AM,21.2,10.4,63,30.25,10.0,Calm,Calm,-,N/A,,Overcast,0,2013-02-02 14:15:00
9:35 AM,21.2,8.6,58,30.24,10.0,ENE,3.5,-,N/A,,Overcast,70,2013-02-02 14:35:00
9:55 AM,23.0,12.2,63,30.22,10.0,ENE,5.8,-,N/A,,Scattered Clouds,60,2013-02-02 14:55:00
10:15 AM,24.8,12.2,59,30.20,10.0,East,4.6,-,N/A,,Scattered Clouds,80,2013-02-02 15:15:00
10:35 AM,28.4,12.2,51,30.21,10.0,Calm,Calm,-,N/A,,Overcast,0,2013-02-02 15:35:00
10:55 AM,30.2,10.4,44,30.21,10.0,WSW,3.5,-,N/A,,Mostly Cloudy,240,2013-02-02 15:55:00
11:15 AM,30.2,6.8,37,30.22,10.0,West,12.7,-,N/A,,Overcast,270,2013-02-02 16:15:00
11:35 AM,30.2,8.6,40,30.24,10.0,West,11.5,-,N/A,,Overcast,260,2013-02-02 16:35:00
11:55 AM,28.4,8.6,43,30.22,10.0,WNW,4.6,-,N/A,,Overcast,300,2013-02-02 16:55:00
12:15 PM,28.4,10.4,47,30.20,9.0,West,9.2,-,N/A,Snow,Light Snow,270,2013-02-02 17:15:00
12:35 PM,26.6,17.6,69,30.19,4.0,West,10.4,-,N/A,Snow,Light Snow,260,2013-02-02 17:35:00
12:55 PM,24.8,19.4,80,30.17,1.2,NW,6.9,-,N/A,Snow,Light Snow,310,2013-02-02 17:55:00
1:15 PM,24.8,19.4,80,30.14,1.8,Calm,Calm,-,N/A,Snow,Light Snow,0,2013-02-02 18:15:00
1:35 PM,24.8,21.2,86,30.12,1.8,ENE,3.5,-,N/A,Snow,Light Snow,70,2013-02-02 18:35:00
1:55 PM,24.8,21.2,86,30.10,7.0,Calm,Calm,-,N/A,Snow,Light Snow,0,2013-02-02 18:55:00
2:15 PM,26.6,21.2,80,30.10,4.0,Calm,Calm,-,N/A,Snow,Light Snow,0,2013-02-02 19:15:00
2:35 PM,26.6,23.0,86,30.09,4.0,Calm,Calm,-,N/A,Snow,Light Snow,0,2013-02-02 19:35:00
2:55 PM,26.6,23.0,86,30.08,1.8,East,3.5,-,N/A,Snow,Light Snow,100,2013-02-02 19:55:00
3:15 PM,24.8,24.8,100,30.08,0.5,Calm,Calm,-,N/A,Fog-Snow,Snow,0,2013-02-02 20:15:00
3:35 PM,26.6,24.8,93,30.07,1.2,Calm,Calm,-,N/A,Snow,Light Snow,0,2013-02-02 20:35:00
3:55 PM,26.6,24.8,93,30.07,0.8,Calm,Calm,-,N/A,Snow,Light Snow,0,2013-02-02 20:55:00
4:15 PM,24.8,24.8,100,30.06,0.8,Calm,Calm,-,N/A,Snow,Light Snow,0,2013-02-02 21:15:00
4:35 PM,26.6,24.8,93,30.05,1.8,Calm,Calm,-,N/A,Snow,Light Snow,0,2013-02-02 21:35:00
4:55 PM,26.6,24.8,93,30.05,1.2,Calm,Calm,-,N/A,Snow,Light Snow,0,2013-02-02 21:55:00
5:15 PM,26.6,26.6,100,30.05,1.5,Calm,Calm,-,N/A,Snow,Light Snow,0,2013-02-02 22:15:00
5:35 PM,26.6,26.6,100,30.04,1.8,Calm,Calm,-,N/A,Snow,Light Snow,0,2013-02-02 22:35:00
5:55 PM,26.6,26.6,100,30.03,2.0,Calm,Calm,-,N/A,Snow,Light Snow,0,2013-02-02 22:55:00
6:15 PM,26.6,26.6,100,30.04,1.8,Calm,Calm,-,N/A,Snow,Light Snow,0,2013-02-02 23:15:00
6:35 PM,26.6,26.6,100,30.04,1.2,Calm,Calm,-,N/A,Snow,Light Snow,0,2013-02-02 23:35:00
6:55 PM,26.6,26.6,100,30.04,1.0,SW,3.5,-,N/A,Snow,Light Snow,220,2013-02-02 23:55:00
7:15 PM,26.6,26.6,100,30.03,1.0,SSW,3.5,-,N/A,Snow,Light Snow,210,2013-02-03 00:15:00
7:35 PM,26.6,26.6,100,30.04,1.2,Calm,Calm,-,N/A,Snow,Light Snow,0,2013-02-03 00:35:00
7:55 PM,28.4,26.6,93,30.04,1.5,Calm,Calm,-,N/A,Snow,Light Snow,0,2013-02-03 00:55:00
8:15 PM,28.4,26.6,93,30.06,1.5,Calm,Calm,-,N/A,Snow,Light Snow,0,2013-02-03 01:15:00
8:35 PM,26.6,26.6,100,30.06,1.2,Calm,Calm,-,N/A,Snow,Light Snow,0,2013-02-03 01:35:00
8:55 PM,28.4,28.4,100,30.06,1.0,West,3.5,-,N/A,Snow,Light Snow,280,2013-02-03 01:55:00
9:15 PM,28.4,26.6,93,30.06,2.5,Calm,Calm,-,N/A,Snow,Light Snow,0,2013-02-03 02:15:00
9:35 PM,28.4,26.6,93,30.06,6.0,Calm,Calm,-,N/A,Snow,Light Snow,0,2013-02-03 02:35:00
9:55 PM,28.4,28.4,100,30.05,5.0,Calm,Calm,-,N/A,Snow,Light Snow,0,2013-02-03 02:55:00
10:15 PM,28.4,26.6,93,30.05,9.0,Calm,Calm,-,N/A,Snow,Light Snow,0,2013-02-03 03:15:00
10:35 PM,28.4,28.4,100,30.04,6.0,Calm,Calm,-,N/A,Rain,Freezing Rain,0,2013-02-03 03:35:00
10:55 PM,28.4,28.4,100,30.04,4.0,WNW,3.5,-,N/A,Rain,Freezing Rain,300,2013-02-03 03:55:00
11:15 PM,28.4,28.4,100,30.04,7.0,Calm,Calm,-,N/A,Rain,Freezing Rain,0,2013-02-03 04:15:00
11:35 PM,28.4,28.4,100,30.03,3.0,Calm,Calm,-,N/A,Rain,Freezing Rain,0,2013-02-03 04:35:00